Location: Tuckahoe State Park
(38.9833°N, 75.9333°W)
Time: 20:04:28
(UTC-04:00)

OTV 5 (USA 277) - Visible Passes

Search period start: 25 April 2019 00:00
Search period end: 05 May 2019 00:00
Orbit: 309 x 326 km, 54.5° (Epoch: 21 April)

Date Brightness Start Highest point End Pass type
(mag) Time Alt. Az. Time Alt. Az. Time Alt. Az.
25 Apr ? 20:20:17 10° SW 20:23:01 85° NW 20:25:45 10° NE visible
26 Apr ? 20:35:23 10° W 20:37:48 28° NW 20:40:14 10° NNE visible
27 Apr ? 20:51:17 10° WNW 20:52:45 13° NNW 20:54:12 10° N visible
